When you browse on this site, cookies collect data to enhance your experience and personalize the content and advertising you see.
Visit our Privacy Policy to learn more. By continuing to use the site, you agree to this use of cookies and data.

Hourly Weather Kamarang

Today, 5 July, Sunday

Time Temperature Precipitation Wind Pressure Humidity
00:00 +20°C° 0.1 mm 0 mps 712 mmHg 97%
01:00 +20°C° 0.1 mm 0 mps 712 mmHg 98%
02:00 +20°C° 0 mm 0 mps 712 mmHg 99%
03:00 +20°C° 0.4 mm 0 mps 712 mmHg 99%
04:00 +20°C° 0.4 mm 0 mps 712 mmHg 99%
05:00 +20°C° 0.4 mm 0 mps 711 mmHg 99%
06:00 +21°C° 0.1 mm 0 mps 712 mmHg 97%
07:00 +22°C° 0.1 mm 0 mps 712 mmHg 96%
08:00 +22°C° 0.1 mm 0 mps 713 mmHg 94%
09:00 +23°C° 0.7 mm 0 mps 713 mmHg 91%
10:00 +24°C° 0.7 mm 0 mps 713 mmHg 88%
11:00 +27°C° 0.7 mm 1 mps 713 mmHg 85%
12:00 +27°C° 1.3 mm 1 mps 713 mmHg 88%
13:00 +26°C° 1.3 mm 1 mps 712 mmHg 91%
14:00 +26°C° 1.3 mm 1 mps 711 mmHg 94%
15:00 +26°C° 0.4 mm 1 mps 711 mmHg 89%
16:00 +27°C° 0.4 mm 1 mps 711 mmHg 85%
17:00 +27°C° 0.4 mm 1 mps 711 mmHg 80%
18:00 +26°C° 0.7 mm 1 mps 711 mmHg 86%
19:00 +24°C° 0.7 mm 1 mps 711 mmHg 92%
20:00 +23°C° 0.7 mm 1 mps 712 mmHg 99%
21:00 +21°C° 0.5 mm 0 mps 712 mmHg 99%
22:00 +20°C° 0.5 mm 0 mps 712 mmHg 99%
23:00 +20°C° 0.5 mm 0 mps 713 mmHg 99%

Tomorrow, 6 July, Monday

Time Temperature Precipitation Wind Pressure Humidity
00:00 +20°C° 1.4 mm 0 mps 712 mmHg 99%
01:00 +20°C° 1.4 mm 0 mps 712 mmHg 99%
02:00 +20°C° 1.4 mm 0 mps 712 mmHg 99%
03:00 +20°C° 0.6 mm 0 mps 712 mmHg 99%
04:00 +20°C° 0.6 mm 0 mps 712 mmHg 99%
05:00 +20°C° 0.6 mm 0 mps 712 mmHg 99%
06:00 +20°C° 0 mm 0 mps 712 mmHg 98%
07:00 +21°C° 0 mm 0 mps 713 mmHg 96%
08:00 +22°C° 0 mm 0 mps 713 mmHg 95%
09:00 +23°C° 0.1 mm 0 mps 713 mmHg 89%
10:00 +24°C° 0.1 mm 0 mps 713 mmHg 83%
11:00 +25°C° 0.1 mm 0 mps 713 mmHg 77%
12:00 +26°C° 0.4 mm 0 mps 713 mmHg 76%
13:00 +29°C° 0.4 mm 1 mps 712 mmHg 74%
14:00 +30°C° 0.4 mm 1 mps 711 mmHg 72%
15:00 +29°C° 1.3 mm 1 mps 711 mmHg 79%
16:00 +28°C° 1.3 mm 1 mps 711 mmHg 86%
17:00 +25°C° 1.3 mm 0 mps 710 mmHg 93%
18:00 +24°C° 0.6 mm 0 mps 711 mmHg 94%
19:00 +22°C° 0.6 mm 0 mps 711 mmHg 96%
20:00 +21°C° 0.6 mm 0 mps 712 mmHg 98%
21:00 +21°C° 0 mm 0 mps 712 mmHg 98%
22:00 +20°C° 0 mm 0 mps 712 mmHg 98%
23:00 +20°C° 0 mm 0 mps 713 mmHg 99%

Day after tomorrow, 7 July, Tuesday

Time Temperature Precipitation Wind Pressure Humidity
00:00 +20°C° 0 mm 0 mps 712 mmHg 99%
01:00 +20°C° 0 mm 0 mps 712 mmHg 99%
02:00 +19°C° 0 mm 0 mps 711 mmHg 99%
03:00 +20°C° 0 mm 0 mps 711 mmHg 99%
04:00 +20°C° 0 mm 0 mps 711 mmHg 99%
05:00 +20°C° 0 mm 0 mps 711 mmHg 99%
06:00 +20°C° 0 mm 0 mps 712 mmHg 98%
07:00 +21°C° 0 mm 0 mps 712 mmHg 96%
08:00 +22°C° 0 mm 0 mps 713 mmHg 95%
09:00 +26°C° 0.1 mm 1 mps 713 mmHg 83%
10:00 +28°C° 0.1 mm 1 mps 713 mmHg 72%
11:00 +30°C° 0.1 mm 1 mps 713 mmHg 60%
12:00 +30°C° 0.3 mm 1 mps 713 mmHg 63%
13:00 +30°C° 0.3 mm 1 mps 712 mmHg 66%
14:00 +29°C° 0.3 mm 2 mps 711 mmHg 69%
15:00 +29°C° 0.2 mm 1 mps 711 mmHg 68%
16:00 +29°C° 0.2 mm 1 mps 711 mmHg 68%
17:00 +29°C° 0.2 mm 1 mps 711 mmHg 68%
18:00 +27°C° 0.1 mm 1 mps 711 mmHg 78%
19:00 +25°C° 0.1 mm 1 mps 711 mmHg 87%
20:00 +23°C° 0.1 mm 1 mps 712 mmHg 97%
21:00 +20°C° 0 mm 0 mps 712 mmHg 98%
22:00 +20°C° 0 mm 0 mps 713 mmHg 98%
23:00 +20°C° 0 mm 0 mps 713 mmHg 99%

8 July, Wednesday

Time Temperature Precipitation Wind Pressure Humidity
00:00 +20°C° 0 mm 0 mps 713 mmHg 99%
01:00 +20°C° 0 mm 0 mps 712 mmHg 99%
02:00 +20°C° 0 mm 0 mps 712 mmHg 99%
03:00 +20°C° 0 mm 0 mps 712 mmHg 99%
04:00 +20°C° 0 mm 0 mps 712 mmHg 99%
05:00 +20°C° 0 mm 0 mps 712 mmHg 98%
06:00 +21°C° 0 mm 0 mps 712 mmHg 94%
07:00 +22°C° 0 mm 0 mps 713 mmHg 90%
08:00 +23°C° 0 mm 0 mps 713 mmHg 87%
09:00 +25°C° 0 mm 0 mps 713 mmHg 73%
10:00 +29°C° 0 mm 1 mps 713 mmHg 60%
11:00 +31°C° 0 mm 1 mps 713 mmHg 47%
12:00 +32°C° 0 mm 1 mps 713 mmHg 45%
13:00 +32°C° 0 mm 1 mps 712 mmHg 43%
14:00 +34°C° 0 mm 2 mps 712 mmHg 42%
15:00 +32°C° 0 mm 2 mps 711 mmHg 48%
16:00 +31°C° 0 mm 2 mps 711 mmHg 54%
17:00 +29°C° 0 mm 2 mps 711 mmHg 60%
18:00 +27°C° 0.4 mm 1 mps 711 mmHg 72%
19:00 +25°C° 0.4 mm 1 mps 711 mmHg 85%
20:00 +23°C° 0.4 mm 1 mps 712 mmHg 97%
21:00 +21°C° 0 mm 0 mps 712 mmHg 97%
22:00 +20°C° 0 mm 0 mps 712 mmHg 98%
23:00 +20°C° 0 mm 0 mps 713 mmHg 99%

9 July, Thursday

Time Temperature Precipitation Wind Pressure Humidity
00:00 +20°C° 0 mm 0 mps 712 mmHg 99%
01:00 +20°C° 0 mm 0 mps 712 mmHg 99%
02:00 +20°C° 0 mm 0 mps 712 mmHg 99%
03:00 +19°C° 0 mm 0 mps 712 mmHg 99%
04:00 +19°C° 0 mm 0 mps 712 mmHg 99%
05:00 +19°C° 0 mm 0 mps 712 mmHg 99%
06:00 +20°C° 0 mm 0 mps 712 mmHg 95%
07:00 +21°C° 0 mm 0 mps 713 mmHg 92%
08:00 +22°C° 0 mm 0 mps 714 mmHg 88%
09:00 +25°C° 0 mm 0 mps 714 mmHg 76%
10:00 +27°C° 0 mm 0 mps 714 mmHg 64%
11:00 +30°C° 0 mm 0 mps 714 mmHg 52%
12:00 +30°C° 0 mm 0 mps 713 mmHg 49%
13:00 +32°C° 0 mm 1 mps 712 mmHg 46%
14:00 +33°C° 0 mm 1 mps 712 mmHg 43%
15:00 +32°C° 0 mm 1 mps 711 mmHg 47%
16:00 +31°C° 0 mm 2 mps 711 mmHg 51%
17:00 +30°C° 0 mm 2 mps 711 mmHg 55%
18:00 +28°C° 0 mm 1 mps 711 mmHg 67%
19:00 +26°C° 0 mm 1 mps 712 mmHg 79%
20:00 +23°C° 0 mm 1 mps 712 mmHg 91%
21:00 +21°C° 0 mm 0 mps 712 mmHg 93%
22:00 +20°C° 0 mm 0 mps 713 mmHg 96%
23:00 +20°C° 0 mm 0 mps 713 mmHg 98%

10 July, Friday

Time Temperature Precipitation Wind Pressure Humidity
00:00 +20°C° 0 mm 0 mps 713 mmHg 98%
01:00 +20°C° 0 mm 0 mps 712 mmHg 98%
02:00 +20°C° 0 mm 0 mps 712 mmHg 97%
03:00 +20°C° 0 mm 0 mps 712 mmHg 97%
04:00 +20°C° 0 mm 0 mps 712 mmHg 97%
05:00 +20°C° 0 mm 0 mps 712 mmHg 97%
06:00 +21°C° 0 mm 0 mps 713 mmHg 92%
07:00 +22°C° 0 mm 0 mps 713 mmHg 87%
08:00 +23°C° 0 mm 0 mps 714 mmHg 82%
09:00 +26°C° 0 mm 0 mps 714 mmHg 72%
10:00 +28°C° 0 mm 0 mps 714 mmHg 62%
11:00 +32°C° 0 mm 1 mps 714 mmHg 52%
12:00 +31°C° 1.1 mm 1 mps 713 mmHg 63%
13:00 +30°C° 1.1 mm 1 mps 712 mmHg 73%
14:00 +29°C° 1.1 mm 1 mps 711 mmHg 83%
15:00 +28°C° 1.6 mm 1 mps 711 mmHg 87%
16:00 +28°C° 1.6 mm 1 mps 711 mmHg 90%
17:00 +25°C° 1.6 mm 0 mps 711 mmHg 93%
18:00 +24°C° 2.2 mm 0 mps 711 mmHg 94%
19:00 +23°C° 2.2 mm 0 mps 711 mmHg 95%
20:00 +22°C° 2.2 mm 0 mps 712 mmHg 97%
21:00 +21°C° 0.5 mm 0 mps 712 mmHg 97%
22:00 +21°C° 0.5 mm 0 mps 713 mmHg 98%
23:00 +21°C° 0.5 mm 0 mps 713 mmHg 98%
Show more